Simultaneous Nadir Overpasses (SNOs) Predictions

Prediction of SNOs between GOES-17 and LANDSAT-8 Satellite Orbit:

Table of predicted SNOs for the next 14.0 days since TLE Epoch: 5/16/2025
Index Date Time (GOES-17) GOES-17 Lat,Lon LANDSAT-8 Lat,Lon Distance(km) Time Diff (sec)
1 05/17/2025 05:06:26 -0.03,-104.37 0.03,-104.03 39.17 80
2 05/19/2025 04:54:15 -0.02,-104.37 0.67,-101.07 375.22 80
3 05/19/2025 17:15:31 0.02,-104.44 0.39,-106.23 203.93 80
4 05/21/2025 17:06:00 0.01,-104.44 -0.26,-103.28 132.67 80
5 05/22/2025 05:27:23 -0.01,-104.37 -0.91,-108.45 464.39 80
6 05/23/2025 16:53:48 0.01,-104.44 -0.87,-100.31 469.32 80
7 05/24/2025 05:15:12 -0.01,-104.37 -0.24,-105.50 127.78 80
8 05/26/2025 05:00:20 -0.01,-104.37 0.39,-102.54 208.48 80
9 05/26/2025 17:21:35 0.00,-104.43 0.67,-107.70 371.23 80
10 05/28/2025 17:09:24 -0.00,-104.42 0.03,-104.74 35.39 80
11 05/30/2025 16:59:51 -0.01,-104.41 -0.56,-101.76 301.13 80
